OK1PHU-6 Weather Reports


Display with metric or nautical units.
time (UTC)temp
F
wind
direction
speed
MPH
gust
MPH
rain 1hr
in
rain 24hr
in
rain mn
in
humidity
%
barometer
mb
20260506145624 0 90 6.0 16.0 0.00 0.00 0.00 1003.2
20260506143457 0 180 4.0 17.0 0.00 0.00 0.00 1003.5
20260506142416 0 180 4.0 18.0 0.00 0.00 0.00 1003.6
20260506141332 0 180 8.0 16.0 0.00 0.00 0.00 1003.7
20260506140249 0 180 4.0 8.0 0.00 0.00 0.00 1003.7
20260506135203 0 135 4.0 9.0 0.00 0.00 0.00 1003.8
20260506134118 0 90 4.0 8.0 0.00 0.00 0.00 1004.0
20260506133036 0 248 4.0 8.0 0.00 0.00 0.00 1004.2
20260506131950 0 270 6.0 11.0 0.00 0.00 0.00 1004.4
20260506130257 0 225 3.0 14.0 0.00 0.00 0.00 1004.6
20260506124449 0 270 6.0 14.0 0.00 0.00 0.00 1004.7
20260506122728 0 135 2.0 13.0 0.00 0.00 0.00 1004.9
20260506121646 0 180 6.0 11.0 0.00 0.00 0.00 1004.9
20260506120601 0 270 6.0 9.0 0.00 0.00 0.00 1004.9
20260506115518 0 135 4.0 12.0 0.00 0.00 0.00 1004.9
20260506114433 0 90 1.0 9.0 0.00 0.00 0.00 1005.1
20260506113350 0 180 3.0 8.0 0.00 0.00 0.00 1005.1
20260506112306 0 315 3.0 10.0 0.00 0.00 0.00 1005.2
20260506111224 0 203 6.0 8.0 0.00 0.00 0.00 1005.3
20260506110141 0 225 6.0 9.0 0.00 0.00 0.00 1005.5
20260506105057 0 225 4.0 10.0 0.00 0.00 0.00 1005.6
20260506104014 0 270 6.0 10.0 0.00 0.00 0.00 1005.6
20260506102930 0 225 6.0 11.0 0.00 0.00 0.00 1005.6
20260506101846 0 270 6.0 12.0 0.00 0.00 0.00 1005.8
20260506100804 0 135 8.0 19.0 0.00 0.00 0.00 1006.0
20260506095721 0 270 11.0 13.0 0.00 0.00 0.00 1006.0
20260506094638 0 225 10.0 13.0 0.00 0.00 0.00 1006.0
20260506093554 0 225 8.0 12.0 0.00 0.00 0.00 1006.2
20260506092513 0 315 6.0 13.0 0.00 0.00 0.00 1006.3
20260506091430 0 315 7.0 9.0 0.00 0.00 0.00 1006.3
20260506090347 0 270 7.0 10.0 0.00 0.00 0.00 1006.5
20260506085306 0 225 5.0 13.0 0.00 0.00 0.00 1006.5
20260506084221 0 270 3.0 13.0 0.00 0.00 0.00 1006.6
20260506083137 0 270 6.0 9.0 0.00 0.00 0.00 1006.6
20260506082054 0 270 5.0 11.0 0.00 0.00 0.00 1006.7
20260506081012 0 270 4.0 14.0 0.00 0.00 0.00 1006.7
20260506072721 0 225 6.0 10.0 0.00 0.00 0.00 1006.9
20260506071637 0 0 5.0 10.0 0.00 0.00 0.00 1006.8
20260506070554 0 0 7.0 17.0 0.00 0.00 0.00 1007.0
20260506061220 0 45 3.0 15.0 0.00 0.00 0.00 1007.0
20260506060138 0 0 6.0 10.0 0.00 0.00 0.00 1007.1
20260506050757 0 270 4.0 9.0 0.00 0.00 0.00 1006.8
20260506044630 0 225 0.0 3.0 0.00 0.00 0.00 1006.6
20260506043545 0 225 2.0 3.0 0.00 0.00 0.00 1006.6
20260506042459 0 270 0.0 3.0 0.00 0.00 0.00 1006.5
20260506041317 0 180 1.0 3.0 0.00 0.00 0.00 1006.3
20260506035019 0 180 4.0 4.0 0.00 0.00 0.00 1006.1
20260506033933 0 225 3.0 4.0 0.00 0.00 0.00 1006.0
20260506032850 0 135 0.0 4.0 0.00 0.00 0.00 1005.8
20260506031758 0 225 3.0 5.0 0.00 0.00 0.00 1006.1
20260506030701 0 180 0.0 2.0 0.00 0.00 0.00 1006.3
20260506025618 0 135 0.0 2.0 0.00 0.00 0.00 1006.1
20260506024534 0 135 1.0 1.0 0.00 0.00 0.00 1006.1
20260506023447 0 135 1.0 1.0 0.00 0.00 0.00 1005.9
20260506022402 0 135 1.0 2.0 0.00 0.00 0.00 1005.8
20260506021319 0 135 0.0 0.0 0.00 0.00 0.00 1005.6
20260506020235 0 135 0.0 0.0 0.00 0.00 0.00 1005.6
20260506015151 0 135 0.0 0.0 0.00 0.00 0.00 1005.7
20260506014107 0 135 0.0 1.0 0.00 0.00 0.00 1005.9
20260506013023 0 315 1.0 2.0 0.00 0.00 0.00 1005.9
20260506011937 0 0 1.0 4.0 0.00 0.00 0.00 1005.8
20260506010853 0 0 2.0 4.0 0.00 0.00 0.00 1005.7
20260506005805 0 68 2.0 7.0 0.00 0.00 0.00 1005.8
20260506004723 0 0 6.0 9.0 0.00 0.00 0.00 1005.7
20260506003641 0 0 7.0 9.0 0.00 0.00 0.00 1005.7
20260506002558 0 338 2.0 3.0 0.00 0.00 0.00 1005.5
20260506001515 0 225 2.0 4.0 0.00 0.00 0.00 1005.5
20260506000431 0 270 3.0 5.0 0.00 0.00 0.00 1005.4
20260505235346 0 225 2.0 4.0 0.00 0.00 0.00 1005.5
20260505234301 0 225 2.0 3.0 0.00 0.00 0.00 1005.3
20260505233218 0 270 2.0 5.0 0.00 0.00 0.00 1005.2
20260505232136 0 315 1.0 9.0 0.00 0.00 0.00 1005.2
20260505231053 0 180 6.0 7.0 0.00 0.00 0.00 1004.9
20260505230011 0 180 4.0 11.0 0.00 0.00 0.00 1005.0
20260505224925 0 225 7.0 15.0 0.00 0.00 0.00 1004.5
20260505223844 0 135 7.0 24.0 0.00 0.00 0.00 1004.2
20260505222800 0 135 10.0 18.0 0.00 0.00 0.00 1003.7
20260505221717 0 180 7.0 16.0 0.00 0.00 0.00 1003.5
20260505220633 0 180 11.0 14.0 0.00 0.00 0.00 1003.5
20260505215546 0 135 5.0 16.0 0.00 0.00 0.00 1003.6
20260505214503 0 90 6.0 15.0 0.00 0.00 0.00 1003.6
20260505213418 0 90 10.0 14.0 0.00 0.00 0.00 1003.4
20260505212336 0 68 6.0 16.0 0.00 0.00 0.00 1003.5
20260505211254 0 225 10.0 14.0 0.00 0.00 0.00 1003.6
20260505210209 0 90 4.0 13.0 0.00 0.00 0.00 1003.6
20260505205127 0 135 7.0 13.0 0.00 0.00 0.00 1003.7
20260505204044 0 248 8.0 13.0 0.00 0.00 0.00 1003.7
20260505202959 0 180 9.0 15.0 0.00 0.00 0.00 1003.7
20260505201912 0 135 6.0 14.0 0.00 0.00 0.00 1003.6
20260505200827 0 225 9.0 11.0 0.00 0.00 0.00 1003.6
20260505195744 0 90 6.0 15.0 0.00 0.00 0.00 1003.6
20260505194702 0 45 9.0 18.0 0.00 0.00 0.00 1003.8
20260505193616 0 135 5.0 9.0 0.00 0.00 0.00 1003.7
20260505192533 0 225 3.0 13.0 0.00 0.00 0.00 1003.6
20260505191452 0 135 2.0 11.0 0.00 0.00 0.00 1003.6
20260505190410 0 90 9.0 12.0 0.00 0.00 0.00 1003.5
20260505185324 0 180 5.0 10.0 0.00 0.00 0.00 1003.4
20260505184240 0 90 4.0 10.0 0.00 0.00 0.00 1003.3
20260505183157 0 180 4.0 11.0 0.00 0.00 0.00 1003.3
20260505182114 0 135 3.0 8.0 0.00 0.00 0.00 1003.4
20260505181032 0 45 3.0 6.0 0.00 0.00 0.00 1003.3
20260505175948 0 90 2.0 2.0 0.00 0.00 0.00 1003.2
20260505174906 0 113 1.0 2.0 0.00 0.00 0.00 1003.1
20260505173822 0 135 1.0 3.0 0.00 0.00 0.00 1003.2
20260505172739 0 90 2.0 3.0 0.00 0.00 0.00 1003.1
20260505171657 0 135 2.0 4.0 0.00 0.00 0.00 1003.0
20260505170616 0 135 2.0 4.0 0.00 0.00 0.00 1003.0
20260505165534 0 135 2.0 5.0 0.00 0.00 0.00 1003.1
20260505164452 0 135 3.0 6.0 0.00 0.00 0.00 1003.1
20260505163408 0 135 6.0 7.0 0.00 0.00 0.00 1003.2
20260505162325 0 225 3.0 6.0 0.00 0.00 0.00 1003.2
20260505161242 0 135 2.0 10.0 0.00 0.00 0.00 1003.3
20260505160157 0 203 6.0 11.0 0.00 0.00 0.00 1003.3
20260505152948 0 203 2.0 14.0 0.00 0.00 0.00 1002.9
20260505151906 0 135 11.0 15.0 0.00 0.00 0.00 1003.1
20260505150823 0 90 6.0 12.0 0.00 0.00 0.00 1003.2